• In Deutschland
  • Länderverzeichnis
  • Für 7 Tage
  • Wassertemperatur
  • Satellitenkarten
  • Wetterkarte
  • Widgets
  • user-avatar
    Anmelden

    Stündliche Wetter Hamhŭng

    Heute, 22 November, Mittwoch

    Zeit Temperatur Niederschläge Wind Luftdruck Luftfeuchtigkeit
    00:00 0°C° 0 mm 4 m/S 762 mmHg 74%
    01:00 +1°C° 0 mm 4 m/S 761 mmHg 76%
    02:00 +1°C° 0 mm 4 m/S 760 mmHg 77%
    03:00 +1°C° 0 mm 4 m/S 760 mmHg 79%
    04:00 +1°C° 0 mm 4 m/S 760 mmHg 81%
    05:00 +1°C° 0 mm 4 m/S 759 mmHg 84%
    06:00 +1°C° 0 mm 4 m/S 759 mmHg 86%
    07:00 +1°C° 0 mm 4 m/S 759 mmHg 83%
    08:00 +3°C° 0 mm 3 m/S 759 mmHg 79%
    09:00 +4°C° 0 mm 4 m/S 758 mmHg 75%
    10:00 +5°C° 0 mm 4 m/S 758 mmHg 64%
    11:00 +6°C° 0 mm 5 m/S 758 mmHg 54%
    12:00 +7°C° 0 mm 6 m/S 757 mmHg 43%
    13:00 +5°C° 0 mm 6 m/S 757 mmHg 43%
    14:00 +5°C° 0 mm 7 m/S 757 mmHg 43%
    15:00 +4°C° 0 mm 8 m/S 757 mmHg 43%
    16:00 +2°C° 0 mm 7 m/S 758 mmHg 47%
    17:00 -1°C° 0 mm 7 m/S 758 mmHg 50%
    18:00 -2°C° 0 mm 6 m/S 759 mmHg 53%
    19:00 -3°C° 0 mm 6 m/S 759 mmHg 53%
    20:00 -4°C° 0 mm 5 m/S 760 mmHg 52%
    21:00 -5°C° 0 mm 5 m/S 760 mmHg 52%
    22:00 -5°C° 0 mm 5 m/S 760 mmHg 50%
    23:00 -5°C° 0 mm 5 m/S 761 mmHg 48%

    Morgen, 23 November, Donnerstag

    Zeit Temperatur Niederschläge Wind Luftdruck Luftfeuchtigkeit
    00:00 -5°C° 0 mm 5 m/S 761 mmHg 46%
    01:00 -4°C° 0 mm 4 m/S 761 mmHg 46%
    02:00 -5°C° 0 mm 4 m/S 761 mmHg 46%
    03:00 -5°C° 0 mm 4 m/S 761 mmHg 45%
    04:00 -5°C° 0 mm 3 m/S 760 mmHg 47%
    05:00 -5°C° 0 mm 3 m/S 760 mmHg 48%
    06:00 -5°C° 0 mm 3 m/S 760 mmHg 49%
    07:00 -5°C° 0 mm 4 m/S 760 mmHg 45%
    08:00 -5°C° 0 mm 5 m/S 760 mmHg 41%
    09:00 -4°C° 0 mm 5 m/S 760 mmHg 37%
    10:00 -4°C° 0 mm 7 m/S 760 mmHg 34%
    11:00 -4°C° 0 mm 8 m/S 759 mmHg 31%
    12:00 -3°C° 0 mm 9 m/S 759 mmHg 27%
    13:00 -3°C° 0 mm 9 m/S 759 mmHg 28%
    14:00 -3°C° 0 mm 9 m/S 758 mmHg 29%
    15:00 -4°C° 0 mm 9 m/S 758 mmHg 30%
    16:00 -5°C° 0 mm 8 m/S 759 mmHg 34%
    17:00 -5°C° 0 mm 8 m/S 759 mmHg 37%
    18:00 -6°C° 0 mm 7 m/S 760 mmHg 41%
    19:00 -6°C° 0 mm 6 m/S 760 mmHg 41%
    20:00 -6°C° 0 mm 6 m/S 760 mmHg 42%
    21:00 -6°C° 0 mm 5 m/S 761 mmHg 43%
    22:00 -6°C° 0 mm 5 m/S 761 mmHg 43%
    23:00 -6°C° 0 mm 5 m/S 761 mmHg 43%

    übermorgen, 24 November, Freitag

    Zeit Temperatur Niederschläge Wind Luftdruck Luftfeuchtigkeit
    00:00 -7°C° 0 mm 4 m/S 761 mmHg 43%
    01:00 -7°C° 0 mm 4 m/S 761 mmHg 45%
    02:00 -7°C° 0 mm 4 m/S 761 mmHg 46%
    03:00 -7°C° 0 mm 4 m/S 761 mmHg 47%
    04:00 -7°C° 0 mm 4 m/S 760 mmHg 49%
    05:00 -7°C° 0 mm 3 m/S 760 mmHg 50%
    06:00 -7°C° 0 mm 3 m/S 760 mmHg 51%
    07:00 -6°C° 0 mm 3 m/S 760 mmHg 48%
    08:00 -6°C° 0 mm 3 m/S 761 mmHg 45%
    09:00 -5°C° 0 mm 4 m/S 761 mmHg 42%
    10:00 -4°C° 0 mm 4 m/S 761 mmHg 37%
    11:00 -4°C° 0 mm 5 m/S 760 mmHg 31%
    12:00 -2°C° 0 mm 5 m/S 760 mmHg 25%
    13:00 -3°C° 0 mm 6 m/S 760 mmHg 26%
    14:00 -3°C° 0 mm 6 m/S 760 mmHg 27%
    15:00 -3°C° 0 mm 7 m/S 760 mmHg 27%
    16:00 -6°C° 0 mm 7 m/S 761 mmHg 30%
    17:00 -6°C° 0 mm 6 m/S 762 mmHg 33%
    18:00 -8°C° 0 mm 6 m/S 762 mmHg 36%
    19:00 -7°C° 0 mm 5 m/S 763 mmHg 37%
    20:00 -8°C° 0 mm 5 m/S 764 mmHg 38%
    21:00 -8°C° 0 mm 5 m/S 765 mmHg 39%
    22:00 -8°C° 0 mm 4 m/S 765 mmHg 38%
    23:00 -8°C° 0 mm 4 m/S 766 mmHg 38%

    25 November, Samstag

    Zeit Temperatur Niederschläge Wind Luftdruck Luftfeuchtigkeit
    00:00 -7°C° 0 mm 3 m/S 766 mmHg 38%
    01:00 -7°C° 0 mm 3 m/S 766 mmHg 41%
    02:00 -6°C° 0 mm 2 m/S 765 mmHg 43%
    03:00 -5°C° 0 mm 2 m/S 765 mmHg 46%
    04:00 -5°C° 0,2 mm 2 m/S 764 mmHg 55%
    05:00 -4°C° 0,2 mm 2 m/S 764 mmHg 64%
    06:00 -4°C° 0,2 mm 2 m/S 763 mmHg 73%
    07:00 -4°C° 0,4 mm 2 m/S 762 mmHg 78%
    08:00 -3°C° 0,4 mm 2 m/S 762 mmHg 83%
    09:00 -4°C° 0,4 mm 3 m/S 761 mmHg 88%
    10:00 -2°C° 0,6 mm 3 m/S 760 mmHg 87%
    11:00 -2°C° 0,6 mm 4 m/S 759 mmHg 87%
    12:00 -1°C° 0,6 mm 4 m/S 758 mmHg 86%
    13:00 0°C° 0,9 mm 5 m/S 757 mmHg 86%
    14:00 +1°C° 0,9 mm 6 m/S 757 mmHg 85%
    15:00 +2°C° 0,9 mm 7 m/S 756 mmHg 84%
    16:00 0°C° 0,1 mm 7 m/S 757 mmHg 82%
    17:00 -1°C° 0,1 mm 8 m/S 757 mmHg 79%
    18:00 -2°C° 0,1 mm 8 m/S 758 mmHg 76%
    19:00 -3°C° 0 mm 7 m/S 759 mmHg 78%
    20:00 -4°C° 0 mm 6 m/S 760 mmHg 79%
    21:00 -5°C° 0 mm 5 m/S 761 mmHg 81%
    22:00 -4°C° 0 mm 4 m/S 762 mmHg 82%
    23:00 -5°C° 0 mm 4 m/S 762 mmHg 82%

    26 November, Sonntag

    Zeit Temperatur Niederschläge Wind Luftdruck Luftfeuchtigkeit
    00:00 -5°C° 0 mm 4 m/S 763 mmHg 82%
    01:00 -5°C° 0 mm 3 m/S 762 mmHg 81%
    02:00 -6°C° 0 mm 3 m/S 762 mmHg 80%
    03:00 -5°C° 0 mm 2 m/S 762 mmHg 79%
    04:00 -5°C° 0,2 mm 3 m/S 762 mmHg 81%
    05:00 -5°C° 0,2 mm 3 m/S 761 mmHg 83%
    06:00 -4°C° 0,2 mm 3 m/S 761 mmHg 86%
    07:00 -4°C° 0,8 mm 3 m/S 761 mmHg 87%
    08:00 -4°C° 0,8 mm 3 m/S 761 mmHg 89%
    09:00 -2°C° 0,8 mm 3 m/S 760 mmHg 91%
    10:00 -1°C° 0,6 mm 3 m/S 760 mmHg 85%
    11:00 -1°C° 0,6 mm 3 m/S 760 mmHg 80%
    12:00 0°C° 0,6 mm 3 m/S 760 mmHg 74%
    13:00 +1°C° 0,1 mm 3 m/S 760 mmHg 72%
    14:00 +1°C° 0,1 mm 3 m/S 761 mmHg 69%
    15:00 +1°C° 0,1 mm 3 m/S 761 mmHg 66%
    16:00 -1°C° 0 mm 3 m/S 762 mmHg 69%
    17:00 -5°C° 0 mm 4 m/S 763 mmHg 72%
    18:00 -8°C° 0 mm 5 m/S 765 mmHg 75%
    19:00 -10°C° 0 mm 5 m/S 766 mmHg 76%
    20:00 -10°C° 0 mm 4 m/S 767 mmHg 77%
    21:00 -11°C° 0 mm 4 m/S 768 mmHg 78%
    22:00 -11°C° 0 mm 4 m/S 768 mmHg 76%
    23:00 -12°C° 0 mm 4 m/S 769 mmHg 74%

    27 November, Montag

    Zeit Temperatur Niederschläge Wind Luftdruck Luftfeuchtigkeit
    00:00 -12°C° 0 mm 3 m/S 769 mmHg 72%
    01:00 -12°C° 0 mm 3 m/S 770 mmHg 69%
    02:00 -10°C° 0 mm 2 m/S 770 mmHg 66%
    03:00 -10°C° 0 mm 2 m/S 770 mmHg 63%
    04:00 -9°C° 0 mm 2 m/S 770 mmHg 61%
    05:00 -9°C° 0 mm 2 m/S 770 mmHg 59%
    06:00 -9°C° 0 mm 2 m/S 769 mmHg 57%
    07:00 -7°C° 0 mm 2 m/S 769 mmHg 57%
    08:00 -4°C° 0 mm 1 m/S 769 mmHg 57%
    09:00 -2°C° 0 mm 1 m/S 769 mmHg 57%
    10:00 0°C° 0 mm 1 m/S 769 mmHg 55%
    11:00 -1°C° 0 mm 2 m/S 768 mmHg 53%
    12:00 +2°C° 0 mm 2 m/S 767 mmHg 50%
    13:00 +3°C° 0 mm 2 m/S 766 mmHg 54%
    14:00 +3°C° 0 mm 2 m/S 766 mmHg 57%
    15:00 +2°C° 0 mm 3 m/S 765 mmHg 60%
    16:00 +1°C° 0 mm 3 m/S 765 mmHg 65%
    17:00 -1°C° 0 mm 3 m/S 765 mmHg 70%
    18:00 -4°C° 0 mm 3 m/S 765 mmHg 74%
    19:00 -5°C° 0 mm 3 m/S 765 mmHg 72%
    20:00 -5°C° 0 mm 4 m/S 765 mmHg 69%
    21:00 -5°C° 0 mm 4 m/S 765 mmHg 67%
    22:00 -5°C° 0 mm 4 m/S 765 mmHg 69%
    23:00 -5°C° 0 mm 4 m/S 765 mmHg 71%
    Mehr zeigen